Regional Weather Roundup
Issued by NWS

Home | Current Version | Previous Version | Text Only | Print | Product List | Glossary Off
Versions: 1 2 3 4 5 6 7 8 9 10 11 12 13 14 15 16 17 18 19 20 21 22 23 24 25 26 27 28 29 30 31 32 33 34 35 36 37 38 39 40 41 42 43 44 45 46 47 48 49 50

000
ASUS43 KMKX 300100
RWRWI

WISCONSIN REGIONAL WEATHER ROUNDUP
NATIONAL WEATHER SERVICE MILWAUKEE/SULLIVAN WI
800 PM CDT THU SEP 29 2016

NOTE: "FAIR" INDICATES FEW OR NO CLOUDS BELOW 12,000 FEET WITH NO
SIGNIFICANT WEATHER AND/OR OBSTRUCTIONS TO VISIBILITY.

WIZ001-002-006>008-014>016-023>028-300200-
NORTHWEST WISCONSIN

CITY           SKY/WX    TMP DP  RH WIND       PRES   REMARKS
SUPERIOR ARPT  CLEAR     52  51  97 NE6       30.46S
ASHLAND        CLOUDY    52  51  97 NE8       30.47S
HAYWARD        MOCLDY    53  50  89 NE7       30.44S
SIREN          CLEAR     57  50  77 CALM      30.42S
CUMBERLAND     CLEAR     55  50  82 NE5       30.41S
RICE LAKE      CLEAR     59  52  76 N8        30.42R
CHETEK         NOT AVBL
LADYSMITH      CLEAR     59  54  82 N8        30.43R
EAU CLAIRE     NOT AVBL
MENOMONIE      CLEAR     61  51  70 N3        30.38S
NEW RICHMOND   CLEAR     56  50  80 NE3       30.40S
OSCEOLA        CLEAR     58  51  79 N3        30.42F
$$

WIZ003>005-009-010-017-018-300200-
NORTH CENTRAL WISCONSIN

CITY           SKY/WX    TMP DP  RH WIND       PRES   REMARKS
MANITOWISH WTR NOT AVBL
ARBOR VITAE    CLEAR     57  53  88 NE3       30.44S
WOODRUFF       CLEAR     57  53  88 NE3       30.44S
RHINELANDER    CLEAR     57  55  93 NE7       30.43S
EAGLE RIVER    CLEAR     55  53  95 N7        30.44S
LAND O LAKES   CLEAR     55  52  90 N7        30.46S
PHILLIPS       CLEAR     56  52  87 N5        30.42R
TOMAHAWK       CLEAR     57  53  85 N3        30.42R
MEDFORD        PTCLDY    57  53  85 N7        30.39S
MERRILL        CLEAR     59  54  83 NE6       30.40R
$$

WIZ029-030-035-036-043>047-300200-
CENTRAL WISCONSIN

CITY           SKY/WX    TMP DP  RH WIND       PRES   REMARKS
WAUSAU         CLEAR     62  49  62 NE7       30.37R
MOSINEE        CLEAR     61  52  72 NE8       30.38S
MARSHFIELD     CLEAR     62  49  62 NE7       30.36S
STEVENS POINT  CLEAR     58  51  76 N3        30.37R
WAUPACA        CLEAR     64  48  56 NE5       30.35S
WAUTOMA        CLEAR     61  48  62 NE8       30.35R
WISC RAPIDS    CLEAR     59  51  75 NE7       30.37R
CAMP DOUGLAS   NOT AVBL
$$

WIZ011>013-019>022-031-037>040-048>050-300200-
NORTHEAST WISCONSIN

CITY           SKY/WX    TMP DP  RH WIND       PRES   REMARKS
ANTIGO         CLEAR     54  50  85 CALM      30.40S
SHAWANO        CLEAR     62  55  78 NE5       30.36S
OCONTO         NOT AVBL
STURGEON BAY   CLEAR     60  54  80 NE8       30.37
GREEN BAY      CLEAR     61  57  87 NE14      30.35R
MANITOWOC      NOT AVBL
APPLETON       PTCLDY    61  46  59 NE12      30.33S
CLINTONVILLE   CLEAR     61  50  67 NE3       30.35S
OSHKOSH        CLEAR     62  53  72 NE15G21   30.32S
$$

WIZ032>034-041-042-053>061-300200-
SOUTHWEST WISCONSIN

CITY           SKY/WX    TMP DP  RH WIND       PRES   REMARKS
LA CROSSE      CLEAR     61  54  77 N6        30.34S
SPARTA         CLEAR     58  53  83 N5        30.35S
VIROQUA        CLEAR     58  51  77 N6        30.34S
BOSCOBEL       CLEAR     58  51  78 CALM      30.32R HAZE
PRAIRIE DU CHI CLEAR     63  50  63 N3        30.31R
PLATTEVILLE    CLEAR     60  50  71 N3        30.31R
$$

WIZ056-057-062-063-064-067-068-300200-
SOUTH CENTRAL WISCONSIN

CITY           SKY/WX    TMP DP  RH WIND       PRES   REMARKS
REEDSBURG      NOT AVBL
BARABOO/DELLS  CLEAR     61  43  51 NE6       30.33R
LONE ROCK      NOT AVBL
MINERAL POINT  CLEAR     63  46  55 NE6       30.31R
MADISON        CLEAR     62  52  69 NE12      30.30S
MIDDLETON      CLEAR     61  52  73 NE5       30.31S
WATERTOWN      MOCLDY    62  53  72 NE7       30.29S
MONROE         PTCLDY    63  46  55 N10       30.28S
JANESVILLE     MOCLDY    64  54  68 NE9       30.27S
$$

WIZ051-052-058>065-066-070>072-300200-
SOUTHEAST WISCONSIN

CITY           SKY/WX    TMP DP  RH WIND       PRES   REMARKS
MILWAUKEE      MOCLDY    62  57  83 N17G25    30.28R
WAUKESHA       MOCLDY    61  55  82 NE9       30.29S
MILWAUKEE/TIMM CLOUDY    63  54  72 N13G20    30.29R
RACINE         CLOUDY    59  57  93 N13       30.28S
BURLINGTON     CLOUDY    61  54  76 NE8       30.27S
KENOSHA        CLOUDY    61  58  90 NE7       30.27R
FOND DU LAC    CLEAR     61  51  70 NE13      30.33R
SHEBOYGAN      MOCLDY    61  55  81 NE16G23   30.31R
WEST BEND      PTCLDY    64  63  94 N10G16    30.30S
JUNEAU         CLEAR     60  49  66 NE7       30.31S
$$

LSZ147-162-300200-
LAKE SUPERIOR

STATION/POSITION TIME  TEMP    WIND        PRES    WAVE
                       AIR SEA DIR/SP/G            HT/PER
                 (UTC) (F)     (DEG/KT/KT) (MB)    (FT/S)
W MID LAKE BUOY  2350   55 55   80/  8/ 10 1031.7F   2/ 5
DEVILS ISLAND    0000   53      70/  8/  9 1032.3F
SAXON HARBOR     0000   56      60/  5/  8 1031.2
$$

LMZ867-665-643>646-300200-
LAKE MICHIGAN

STATION/POSITION TIME  TEMP    WIND        PRES    WAVE
                       AIR SEA DIR/SP/G            HT/PER
                 (UTC) (F)     (DEG/KT/KT) (MB)    (FT/S)
CHAMBERS ISLAND  0000   64      10/ 17/ 21 1027.8S
S GREEN BAY BUOY 0000   64 63   50/ 14/ 16 1027.2R
N MID LAKE BUOY  2350   66 65   90/ 19/ 21 1027.7R   3/ 4
NORTHPORT PIER   0000   64      20/  8/ 11 1028.4R
SISTER BAY       2308   66     110/  5/  9   N/A
KEWAUNEE LAKESHO 0000   62      40/ 12/ 19 1026.6R
SHEBOYGAN LAKESH 0000   61      10/ 19/ 21 1025.7F
PORT WASHINGTON  0000   63      10/  6/ 16 1026.1S
ATWATER BUOY     0000   57 53   10/ 16/ 19 1024.6F
MILWAUKEE LAKESH 0010   60     360/ 17/ 20   N/A
S MID LAKE BUOY  2350   65 68   70/ 23/ 27 1023.0S   6/ 6
KENOSHA   LAKESH 0000   60     360/ 10/ 13 1024.4R
$$

TC  - TEMPERATURE IN CELSIUS
VSB - VISIBILITY IN STATUTE MILES
WCI - WIND CHILL INDEX
HX  - HEAT INDEX





USA.gov is the U.S. government's official web portal to all federal, state and local government web resources and services.